Location: Gros Ch�ne
(48.0764°N, 1.3349°W)
Time: 13:24:34
(UTC+00:00)

Daily predictions for brighter satellites

Satellite Brightness Start Highest point End
(mag) Time Altitude Azimuth Time Altitude Azimuth Time Altitude Azimuth
BREEZE-M DEB (TANK) 4.3 19:57:50 10° WNW 20:02:33 89° NNE 20:21:49 10° ESE
SPOT 3 Rocket 4.1 19:58:21 10° SE 20:03:11 42° ENE 20:08:01 10° N
COSMOS 2406 4.3 19:59:39 10° NNW 20:04:44 32° NE 20:09:46 10° ESE
Cosmos 2084 4.4 20:02:35 10° S 20:05:59 25° ESE 20:09:26 10° ENE
USA 290 2.2 20:04:09 10° NNW 20:07:25 88° NE 20:10:38 10° SSE
Resurs 01 Rocket 2.1 20:03:30 10° SE 20:07:44 46° ENE 20:12:00 10° N
Meteor 1-20 Rocket 4.3 20:04:21 10° N 20:09:58 69° ENE 20:15:27 10° SSE
USA 186 3.4 20:08:20 10° SSW 20:10:25 23° W 20:12:25 10° NW
Cosmos 1933 3.5 20:09:53 10° S 20:13:50 55° E 20:17:47 10° NNE
Cosmos 773 Rocket 4.5 20:12:15 10° NNW 20:17:25 49° ENE 20:22:31 10° SE
ERS-2 3.8 20:20:11 10° N 20:23:35 38° WNW 20:26:57 10° SW
Cosmos 1606 4.0 20:21:02 10° SSW 20:24:38 43° WNW 20:28:18 10° N
Cosmos 2278 Rocket 3.3 20:20:12 10° SSE 20:24:39 24° ESE 20:29:06 10° NE
BREEZE-M DEB (TANK) 1.6 20:22:39 10° W 20:25:17 59° N 20:27:17 10° E
Cosmos 1602 3.9 20:21:34 10° N 20:25:24 57° ENE 20:29:14 10° SSE
Spot 2 Rocket 4.5 20:22:13 10° SE 20:26:40 32° ENE 20:31:08 10° N
USA 305 3.6 20:22:31 10° WNW 20:26:41 51° NNE 20:30:51 10° E
Cosmos 1782 3.2 20:23:46 10° SSE 20:27:32 42° E 20:31:19 10° NNE
Landsat 7 4.0 20:23:31 10° SSE 20:28:10 58° ENE 20:32:51 10° N
Cosmos 1844 Rocket 3.2 20:23:06 10° SW 20:28:38 66° WNW 20:34:14 10° NNE
IGS 5A 3.5 20:25:00 10° SSE 20:29:04 63° ENE 20:33:12 10° N
Cosmos 1242 Rocket 2.4 20:26:29 10° S 20:30:03 74° E 20:33:35 10° NNE
BREEZE-M DEB (TANK) 4.2 20:22:27 10° WNW 20:32:39 50° SW 20:35:39 12° SE
Cosmos 1805 Rocket 4.4 20:28:44 10° NNW 20:32:58 52° W 20:37:12 10° S
ERS-1 Rocket 4.3 20:30:20 10° ESE 20:34:23 26° ENE 20:38:31 10° N
CZ-4C R/B 3.1 20:29:05 10° NW 20:36:09 71° NE 20:43:47 13° SE
BREEZE M DEB (TANK) 4.3 20:34:28 10° W 20:38:30 85° N 20:52:56 10° E
Cosmos 1633 Rocket 3.1 20:34:49 10° N 20:39:13 71° E 20:43:37 10° SSE
Akebono 4.4 20:40:33 10° N 20:42:52 43° ENE 20:43:57 21° SE
ATLAS 5 CENTAUR R/B 2.8 20:40:03 10° NW 20:45:33 57° SW 20:51:47 11° SSE
USA 306 3.3 20:41:50 10° WNW 20:46:04 59° NNE 20:49:58 12° ESE
Cosmos 1328 Rocket 3.6 20:45:37 10° S 20:49:58 61° E 20:54:21 10° NNE
Cosmos 1812 3.5 20:47:18 15° SSE 20:50:01 34° E 20:53:32 10° NNE
Cosmos 1503 Rocket 4.2 20:45:02 10° SSW 20:50:12 74° WNW 20:55:27 10° NNE
Cosmos 1777 Rocket 4.2 20:46:31 10° S 20:51:29 49° ESE 20:56:30 10° NNE
Cosmos 1470 Rocket 3.8 20:47:04 10° N 20:51:31 56° ENE 20:55:01 16° SSE
ARIANE 5 R/B 3.0 20:52:22 16° SE 20:55:31 47° ENE 20:59:42 10° N
Ariane Rocket 4.3 20:53:17 10° SSW 20:57:57 37° W 21:02:39 10° NNW
Cosmos 1666 3.5 20:55:03 10° N 20:58:30 35° ENE 21:00:29 20° SE
CRYOSAT 2 4.3 20:53:55 11° S 20:58:42 79° E 21:03:37 10° N
CARTOSAT-1 4.0 20:56:42 18° SE 20:59:42 48° ENE 21:03:52 10° N
Cosmos 1833 Rocket 2.7 20:57:10 10° NNW 21:02:51 75° ENE 21:07:04 18° SE
Meteor 1-5 Rocket 4.2 20:59:05 10° N 21:04:28 63° ENE 21:08:22 18° SSE
BREEZE-M R/B 1.7 21:02:39 10° W 21:05:10 79° NNW 21:07:45 10° ENE
Cosmos 1933 Rocket 3.8 21:01:30 10° N 21:05:45 51° ENE 21:08:25 21° SE
Cosmos 1437 2.3 21:05:01 14° SSW 21:07:24 87° W 21:10:16 10° N
Cosmos 1666 Rocket 4.4 21:03:19 10° NNW 21:07:35 49° W 21:11:46 10° SSW
Cosmos 1536 4.5 21:05:44 10° NNE 21:08:53 21° ENE 21:10:33 17° ESE
Cosmos 1709 Rocket 4.3 21:03:37 10° NNW 21:09:41 65° W 21:15:42 10° S
USA 307 3.0 21:08:28 10° WNW 21:12:45 76° NNE 21:15:38 20° ESE
Cosmos 2184 Rocket 4.2 21:07:12 10° N 21:13:19 55° ENE 21:17:32 20° SSE
CZ-2C R/B 3.7 21:10:42 10° NNE 21:15:12 85° WNW 21:19:45 10° SSW
Cosmos 2074 Rocket 4.2 21:11:36 10° N 21:17:52 61° ENE 21:22:14 20° SSE
NOSS 3-4 (A) 4.0 21:11:31 10° NW 21:18:23 70° NE 21:24:06 19° SE
NOSS 3-4 (C) 4.0 21:11:38 10° NW 21:18:30 69° NE 21:24:13 19° SE
JB-3 4.4 21:16:02 10° NNE 21:19:51 54° E 21:21:59 24° S
USA 245 2.4 21:20:53 37° SSW 21:21:28 53° WSW 21:23:42 10° NNW
SJ 16-02 1.6 21:19:30 19° S 21:22:26 50° ESE 21:26:44 10° NNE
USA 308 2.9 21:22:04 10° WNW 21:26:23 88° NNE 21:28:43 26° ESE
SPOT 1/Viking Rocket 3.9 21:23:33 15° S 21:27:50 62° WSW 21:33:00 10° NNW
NOSS 3-3 (A) 4.1 21:22:12 10° SW 21:28:01 77° NW 21:34:45 10° NE
NOSS 3-3 (C) 4.1 21:22:19 10° SW 21:28:08 77° NW 21:34:51 10° NE
Cosmos 1500 3.9 21:24:48 10° NNW 21:28:27 50° W 21:30:59 18° SSW
ATLAS 2AS CENTAUR R/B 3.3 21:24:31 10° NW 21:31:53 55° NE 21:37:04 18° ESE
Iridium 4 Rocket 3.8 21:30:59 19° S 21:35:10 76° E 21:41:06 10° N
Terra 2.0 21:33:01 27° SE 21:35:27 58° ENE 21:40:08 10° N
CREW DRAGON DEMO-1 DEB 2.4 21:33:14 10° WNW 21:35:52 64° SSW 21:35:56 64° SSW
Cosmos 1544 4.4 21:33:13 10° NNE 21:36:18 26° ENE 21:37:03 24° E
X-37B 2.7 21:35:15 10° WSW 21:36:59 15° SW 21:36:59 15° SW
USA 215 4.4 21:32:00 10° ENE 21:38:02 41° N 21:44:04 10° WNW
SPOT 5 3.0 21:38:33 26° SSE 21:41:32 89° ENE 21:46:52 10° NNW
Cosmos 2082 Rocket 2.2 21:37:10 10° NNW 21:42:49 80° ENE 21:45:50 29° SE
Resurs 01 Rocket 3.8 21:41:03 10° SW 21:44:27 21° W 21:47:52 10° NW
Cosmos 158 Rocket 3.8 21:39:36 10° NNW 21:44:30 84° ENE 21:46:51 32° SSE
Cosmos 2084 4.4 21:41:11 10° WSW 21:45:13 49° NW 21:49:23 10° NE
Cosmos 2228 Rocket 3.1 21:45:34 33° SSE 21:47:23 60° E 21:51:48 10° NNE
Cosmos 44 4.2 21:43:38 10° NNW 21:48:55 47° NE 21:51:59 23° ESE
COSMOS 2406 3.7 21:43:48 10° NW 21:49:17 51° WSW 21:52:38 23° S
Cosmos 1271 Rocket 2.8 21:54:20 29° SSW 21:56:20 79° WNW 22:00:22 10° N
BREEZE-M DEB (TANK) 4.1 21:51:21 10° W 22:00:13 54° NNW 22:03:04 10° ENE
Meteor 1-27 Rocket 3.8 21:58:45 28° S 22:01:55 70° E 22:07:50 10° NNE
CZ-4B DEB 4.3 22:04:46 60° SSW 22:05:10 70° WSW 22:08:24 10° NNW
USA 305 3.2 22:02:32 10° WNW 22:06:41 50° SW 22:07:27 43° S
Cosmos 2278 Rocket 2.7 22:02:42 10° SW 22:08:17 61° WNW 22:13:55 10° NNE
Cosmos 1295 Rocket 4.5 22:01:55 10° N 22:08:19 81° E 22:11:29 32° SSE
Milstar 3 4.4 22:00:55 10° SW 22:09:47 23° S 22:10:46 23° S
Cosmos 1937 Rocket 4.1 22:09:31 33° ESE 22:10:14 34° ESE 22:14:53 10° NE
SL-24 R/B - RUBIN 2 4.2 22:05:26 10° NW 22:11:01 65° NE 22:13:07 34° ESE
Cosmos 1680 Rocket 3.5 22:07:28 10° NNW 22:12:50 81° ENE 22:14:52 39° SSE
ERS-1 Rocket 3.6 22:10:19 25° SSW 22:12:56 48° W 22:17:48 10° NNW
Cosmos 1869 Rocket 3.6 22:10:24 10° NNW 22:14:43 72° W 22:16:04 42° SSW
Cosmos 1943 Rocket 2.9 22:13:54 32° ESE 22:14:44 34° ESE 22:19:44 10° NE
Centaur D AC-29 4.5 21:17:15 10° SW 22:15:53 28° SSW 22:20:13 25° SSE
Cosmos 2369 Rocket 3.7 22:17:10 20° E 22:17:10 20° E 22:21:05 10° NE
Gbstr 26 Del rocket 4.3 22:11:05 10° WNW 22:18:42 76° NNE 22:23:48 17° E
Cosmos 1238 Rocket 4.1 22:17:09 10° N 22:23:16 54° ENE 22:25:13 37° SE
CZ-4C R/B 3.9 22:17:57 10° NW 22:24:36 36° WSW 22:28:58 22° SSW
USA 306 3.6 22:21:58 10° WNW 22:25:55 37° SW 22:26:02 37° SW
Meteor 1-11 Rocket 4.3 22:21:34 10° NNW 22:27:23 54° W 22:30:24 28° SSW
Okean 1 3.9 22:29:36 42° E 22:29:36 42° E 22:33:20 10° NNE
Cosmos 1340 Rocket 2.8 22:26:19 10° NNW 22:30:26 82° W 22:31:03 62° S
Cosmos 1818 3.8 22:26:31 10° NW 22:32:00 65° NE 22:34:12 36° ESE
Cosmos 1707 Rocket 3.4 22:32:59 58° SSE 22:33:47 78° E 22:38:13 10° NNE
DNEPR-1 R/B 4.3 22:34:45 43° SSE 22:35:50 49° ESE 22:40:42 10° NE
SL-8 Rocket 4.1 22:32:51 10° N 22:39:11 68° E 22:41:32 40° SSE
ALOS 2 3.7 22:41:06 29° E 22:42:01 32° ENE 22:45:56 10° N
Cosmos 1536 3.9 22:41:41 10° NNW 22:45:25 36° W 22:46:16 32° WSW
Cosmos 1743 2.9 22:45:29 10° NNW 22:49:17 59° W 22:49:32 57° WSW
Cosmos 1898 Rocket 3.5 22:47:29 38° SSW 22:49:34 84° WNW 22:54:57 10° NNE
USA 307 4.4 22:48:51 10° WNW 22:51:43 25° WSW 22:51:43 25° WSW
Cosmos 1975 2.9 22:56:31 10° N 23:00:28 61° ENE 23:00:28 61° ENE
SJ 16-02 3.7 22:57:52 10° WSW 23:01:18 21° NW 23:04:45 10° N
RESURS DK-1 3.8 22:58:41 10° NNW 23:02:24 30° NE 23:03:31 26° E
Cosmos 1733 Rocket 3.1 23:00:11 10° NNW 23:04:29 65° W 23:04:54 60° SW
Cosmos 864 Rocket 4.4 23:00:23 10° N 23:06:35 84° E 23:08:29 47° SSE
Cosmos 1461 3.3 23:07:22 54° ESE 23:07:22 54° ESE 23:11:38 10° NE
Cosmos 2297 3.8 23:04:38 34° SW 23:07:13 77° WNW 23:12:56 10° NNE
Cosmos 372 Rocket 3.9 23:07:02 56° SE 23:07:34 60° ESE 23:12:35 10° NNE
Cosmos 2242 Rocket 4.4 23:09:01 38° E 23:09:01 38° E 23:13:08 10° NNE
SeaSat 1 4.3 23:06:03 10° ENE 23:08:32 17° E 23:08:32 17° E
Cosmos 1959 Rocket 4.4 23:03:04 10° N 23:09:20 90° ENE 23:11:16 47° S
Cosmos 1900 4.4 23:09:19 39° SW 23:11:14 77° NW 23:16:19 10° NE
Terra 3.8 23:11:54 16° WSW 23:13:34 19° W 23:16:57 10° NW
ERBS 3.4 23:13:40 10° NW 23:16:00 42° NW 23:16:00 42° NW
Meteor 1-18 Rocket 4.1 23:16:27 51° S 23:17:57 90° ESE 23:23:35 10° NNE
Cosmos 1908 Rocket 3.6 23:14:54 10° N 23:19:24 70° E 23:19:43 67° ESE
USA 215 3.6 23:14:02 10° ESE 23:20:28 63° NNE 23:26:55 10° NW
ATLAS 2AS CENTAUR R/B 3.2 23:15:54 10° NW 23:22:43 44° WSW 23:24:29 37° SSW
Cosmos 1867 4.1 23:25:56 42° ESE 23:25:56 42° ESE 23:30:59 10° NE
Cosmos 2082 Rocket 4.0 23:22:35 10° WNW 23:26:12 18° W 23:27:41 16° WSW
Cosmos 1125 Rocket 4.5 23:26:49 31° ESE 23:26:55 31° E 23:31:29 10° NE
Cosmos 44 4.3 23:25:11 10° NW 23:30:06 36° WSW 23:30:23 36° WSW
Cosmos 2181 Rocket 4.2 23:29:26 39° SW 23:31:42 65° WNW 23:37:50 10° N
SAR-Lupe-2 4.2 23:30:08 10° NNE 23:32:57 49° NE 23:32:57 49° NE
Spot 4 4.3 23:34:25 46° WSW 23:35:01 49° W 23:39:46 10° NNW
Cosmos 2084 Rocket 4.4 23:32:25 10° NW 23:35:44 37° W 23:35:44 37° W
ATLAS CENTAUR R/B 3.2 23:38:29 18° ENE 23:38:29 18° ENE 23:39:48 10° ENE
Cosmos 2344 4.5 23:29:11 10° NW 23:38:08 70° NE 23:50:34 10° SE
Cosmos 2366 rocket 4.3 23:32:44 10° NNW 23:38:47 57° W 23:40:37 42° SW
Cosmos 1821 Rocket 4.1 23:33:02 10° N 23:39:27 72° E 23:41:25 46° SSE
Cosmos 1703 Rocket 3.4 23:48:52 87° S 23:48:56 90° ESE 23:53:22 10° N
Okean 3 4.0 23:50:46 48° E 23:50:46 48° E 23:54:41 10° NNE
Cosmos 1782 Rocket 3.4 23:46:45 10° N 23:51:14 82° E 23:51:22 80° ESE
Lacrosse 5 3.9 23:54:51 15° E 23:54:51 15° E 23:56:26 10° E
